DW0542 Weather Reports


time (UTC)temp
F
wind
direction
speed
knots
gust
knots
rain 1hr
in
rain 24hr
in
rain mn
in
humidity
%
barometer
mb
20260506163040 68 168 0.9 8.7 0.00 0.00 0.00 64 1008.4
20260506161538 68 181 0.0 13.9 0.00 0.00 0.00 65 1008.8
20260506160013 68 98 0.0 7.0 0.00 0.00 0.00 65 1008.8
20260506154512 68 191 0.0 8.7 0.00 0.00 0.00 64 1009.0
20260506153003 68 168 7.0 18.2 0.00 0.00 0.00 64 1009.1
20260506151503 68 175 0.9 13.9 0.00 0.00 0.00 65 1009.2
20260506150002 67 177 1.7 14.8 0.00 0.00 0.00 67 1009.3
20260506144500 66 200 0.0 7.8 0.00 0.00 0.00 69 1009.6
20260506143059 65 201 1.7 8.7 0.00 0.00 0.00 71 1009.6
20260506141557 66 176 0.0 8.7 0.00 0.00 0.00 70 1009.7
20260506134556 65 173 0.0 9.6 0.00 0.00 0.00 74 1009.5
20260506133026 64 176 0.9 12.2 0.00 0.00 0.00 75 1009.5
20260506131625 63 169 0.9 7.8 0.00 0.00 0.00 78 1009.8
20260506130022 61 189 0.0 7.0 0.00 0.00 0.00 81 1010.0
20260506124521 60 178 0.0 12.2 0.00 0.00 0.00 81 1010.1
20260506123020 60 129 0.0 5.2 0.00 0.00 0.00 82 1010.1
20260506121520 59 130 0.0 6.1 0.00 0.00 0.00 83 1010.3
20260506120100 59 168 0.0 5.2 0.00 0.00 0.00 84 1010.0
20260506114609 58 190 0.9 6.1 0.00 0.00 0.00 85 1010.3
20260506113058 58 67 0.0 6.1 0.00 0.00 0.00 85 1010.5
20260506111517 58 205 0.9 8.7 0.00 0.00 0.00 85 1010.6
20260506110014 57 119 0.0 4.3 0.00 0.00 0.00 86 1010.5
20260506104513 57 159 0.0 5.2 0.00 0.00 0.00 86 1010.3
20260506103014 57 93 0.0 1.7 0.00 0.00 0.00 86 1010.4
20260506101512 57 173 0.0 0.0 0.00 0.00 0.00 86 1010.4
20260506100011 57 179 0.0 4.3 0.00 0.00 0.00 85 1010.3
20260506094508 57 168 0.0 2.6 0.00 0.00 0.00 85 1010.4
20260506093006 57 192 1.7 8.7 0.00 0.00 0.00 85 1010.2
20260506091506 57 180 0.0 3.5 0.00 0.00 0.00 85 1010.2
20260506090002 57 186 0.0 7.8 0.00 0.00 0.00 84 1010.4
20260506084607 57 131 0.0 2.6 0.00 0.00 0.00 84 1010.4
20260506083059 57 169 0.0 2.6 0.00 0.00 0.00 84 1010.5
20260506081603 57 211 0.0 6.1 0.00 0.00 0.00 84 1010.7
20260506080106 57 166 0.0 4.3 0.00 0.00 0.00 83 1010.7
20260506073038 58 126 0.0 5.2 0.00 0.00 0.00 81 1010.6
20260506071537 58 189 0.0 9.6 0.00 0.00 0.00 81 1010.5
20260506061552 59 200 0.9 9.6 0.00 0.00 0.00 78 1010.4
20260506044533 61 190 1.7 5.2 0.00 0.00 0.00 72 1010.9
20260506043032 61 155 0.9 7.0 0.00 0.00 0.00 72 1010.9
20260506041531 61 187 0.9 7.8 0.00 0.00 0.00 70 1010.9
20260506040029 61 186 1.7 8.7 0.00 0.00 0.00 70 1011.0
20260506034531 61 194 2.6 8.7 0.00 0.00 0.00 70 1011.0
20260506033027 61 131 0.9 8.7 0.00 0.00 0.00 71 1010.9
20260506031525 60 195 0.0 7.0 0.00 0.00 0.00 71 1010.8
20260506030036 60 95 0.0 5.2 0.00 0.00 0.00 71 1010.8
20260506024546 60 193 0.0 3.5 0.00 0.00 0.00 72 1010.9
20260506023023 59 74 0.0 0.0 0.00 0.00 0.00 72 1010.9
20260506021521 60 76 0.0 7.0 0.00 0.00 0.00 71 1011.0
20260506020017 60 198 0.9 9.6 0.00 0.00 0.00 71 1010.9
20260506014514 60 182 0.0 6.1 0.00 0.00 0.00 71 1010.8
20260506013018 60 88 0.0 7.0 0.00 0.00 0.00 69 1010.6
20260506011542 60 129 0.0 5.2 0.00 0.00 0.00 69 1010.6
20260506010038 61 151 0.0 6.1 0.00 0.00 0.00 68 1010.3
20260506004533 61 200 0.0 7.0 0.00 0.00 0.00 67 1010.2
20260506003034 62 174 0.0 0.9 0.00 0.00 0.00 67 1010.1
20260506001526 62 151 0.0 6.1 0.00 0.00 0.00 66 1009.8
20260506000023 63 118 0.0 3.5 0.00 0.00 0.00 64 1009.6
20260505234617 64 143 0.0 3.5 0.00 0.00 0.00 63 1009.3
20260505233018 66 146 0.0 1.7 0.00 0.00 0.00 61 1009.0
20260505231509 67 205 0.0 4.3 0.00 0.00 0.00 59 1008.8
20260505230015 68 161 0.0 4.3 0.00 0.00 0.00 57 1008.7
20260505224534 69 154 0.0 7.0 0.00 0.00 0.00 54 1008.4
20260505223031 70 110 0.0 7.8 0.00 0.00 0.00 54 1008.0
20260505221523 71 55 0.0 6.1 0.00 0.00 0.00 53 1007.9
20260505220022 71 194 0.0 7.8 0.00 0.00 0.00 53 1008.0
20260505214520 72 165 0.0 7.8 0.00 0.00 0.00 52 1008.0
20260505213017 72 166 0.0 7.0 0.00 0.00 0.00 51 1008.0
20260505211515 73 180 0.0 10.4 0.00 0.00 0.00 52 1007.7
20260505210014 74 188 0.9 6.1 0.00 0.00 0.00 51 1007.8
20260505204514 75 174 0.9 9.6 0.00 0.00 0.00 49 1007.7
20260505203013 75 201 0.0 7.8 0.00 0.00 0.00 50 1007.7
20260505201612 76 167 1.7 7.8 0.00 0.00 0.00 49 1007.6
20260505200042 76 157 0.0 15.6 0.00 0.00 0.00 47 1007.6
20260505194547 77 171 0.0 9.6 0.00 0.00 0.00 47 1007.7
20260505193037 77 169 0.0 15.6 0.00 0.00 0.00 46 1007.6
20260505191537 78 178 0.9 9.6 0.00 0.00 0.00 45 1007.7
20260505190034 77 168 1.7 8.7 0.00 0.00 0.00 46 1007.9
20260505184535 78 157 0.9 11.3 0.00 0.00 0.00 45 1008.0
20260505183032 78 170 0.0 9.6 0.00 0.00 0.00 44 1008.0
20260505181529 77 183 3.5 12.2 0.00 0.00 0.00 45 1008.0
20260505180026 76 176 0.0 6.1 0.00 0.00 0.00 49 1008.3
20260505174525 76 114 1.7 9.6 0.00 0.00 0.00 51 1008.6
20260505171521 76 119 1.7 9.6 0.00 0.00 0.00 50 1009.0
20260505170024 75 125 0.0 15.6 0.00 0.00 0.00 52 1008.9
20260505164537 75 173 1.7 16.5 0.00 0.00 0.00 50 1009.3